Terminal Aerodrome Forecast
Issued by NWS

Current Version | Previous Version | Graphics & Text | Print | Product List | Glossary On
Versions: 1 2 3 4 5 6 7 8 9 10 11 12 13 14 15 16 17
000
FTUS41 KPBZ 011129
TAFMGW
TAF
KMGW 011129Z 0112/0212 26004KT P6SM SCT040
     FM021000 00000KT 1 1/2SM BR SKC=

USA.gov is the U.S. government's official web portal to all federal, state and local government web resources and services.